Wind_Speed
18 20 21 21 20 20 21 21 21 20 17 16 16 16 18 18 16 12 9 10 7 7 8 7 6 5 6 8 10 8 14 16 16 16 16 13 8 5 7 11 16 16 13 14 12
17 20 21 24 22 21 21 21 19 18 15 16 17 17 18 17 17 7 10 10 9 6 6 8 7 6 5 8 10 11 16 17 13 16 20 19 13 8 6 12 11 12 11 19 21
17 19 20 23 22 22 21 19 17 15 16 18 18 18 19 18 17 4 13 11 12 8 6 7 8 9 9 10 12 11 14 18 18 17 18 18 21 19 17 10 11 12 11 12 17
17 18 19 20 20 21 19 18 16 16 16 19 22 21 22 20 18 19 16 13 12 11 9 7 8 10 11 11 15 17 13 13 16 19 22 16 19 23 20 17 14 14 16 12 13
17 17 18 17 17 17 18 17 15 17 22 22 23 25 23 21 25 19 16 12 11 11 10 11 9 7 7 10 15 21 21 21 23 27 23 23 25 22 18 22 19 20 18 19 16
18 17 17 17 17 17 20 20 19 22 24 27 27 28 25 27 21 24 23 20 14 13 12 14 13 9 14 11 12 15 21 24 26 28 25 26 29 20 12 15 17 21 22 24 24
21 20 20 20 21 20 21 22 22 24 28 29 29 29 27 22 24 25 24 22 22 20 15 16 17 14 15 14 12 15 20 19 16 17 21 22 19 20 13 21 24 23 24 24 25
23 23 23 23 24 24 25 25 24 27 28 30 30 30 27 25 24 19 18 17 16 15 16 18 20 17 17 16 17 18 19 18 6 18 14 18 25 13 16 12 21 25 23 25 25
24 24 27 29 29 29 29 30 30 30 32 35 31 29 27 12 16 20 21 16 18 16 15 15 14 14 17 13 17 15 11 16 16 12 7 10 16 13 13 16 22 15 20 24 27
27 28 28 30 29 30 31 30 31 32 36 34 29 22 16 15 20 19 18 17 14 16 18 17 18 21 18 12 12 10 21 22 21 19 15 14 13 11 12 15 12 16 24 30 33
31 31 30 29 28 29 30 33 35 39 31 27 27 26 22 22 23 23 23 24 23 24 24 18 19 25 18 18 15 17 22 21 25 23 25 26 26 22 21 22 24 25 28 29 31
31 31 32 30 31 32 32 34 33 34 33 21 25 29 23 26 26 22 26 27 23 22 18 18 25 17 10 11 15 19 22 25 26 29 32 31 35 31 27 30 32 34 33 36 43
31 30 31 31 32 32 29 29 25 28 34 27 18 12 9 8 9 7 7 7 8 10 10 16 15 12 12 8 19 20 20 19 19 20 25 33 42 37 32 31 31 30 29 33 37
32 33 32 36 34 30 26 23 21 23 23 11 2 2 1 3 2 0 1 5 7 5 3 10 4 11 12 16 17 23 23 22 20 22 17 15 25 37 18 22 26 25 23 25 31
37 35 36 35 32 28 24 21 18 18 6 4 4 5 4 4 3 8 8 8 10 11 13 11 11 8 12 15 13 19 20 21 23 27 28 21 17 27 19 23 16 15 17 21 21
41 39 38 37 31 27 21 18 16 6 9 6 7 7 7 8 8 9 10 12 13 15 19 20 17 18 18 21 19 20 23 23 25 26 15 23 24 18 16 19 16 20 23 21 18
45 42 42 34 31 27 22 18 10 9 3 5 8 11 12 16 14 8 11 14 13 12 17 20 23 21 21 27 24 27 27 6 5 4 7 3 12 23 15 17 21 20 21 21 19
53 42 40 39 34 29 25 21 15 7 19 8 7 11 13 10 13 13 16 22 19 19 26 21 18 17 15 12 5 10 18 13 7 3 7 17 8 6 11 11 12 15 13 12 10
48 47 47 43 34 32 27 29 15 24 12 17 16 13 14 10 16 18 17 19 22 20 27 15 13 11 16 15 9 4 10 17 19 19 9 13 17 15 8 10 7 6 6 6 6
56 52 48 42 38 35 30 34 24 18 18 13 10 9 7 12 14 8 6 3 6 11 19 18 28 24 25 30 24 15 14 8 12 6 14 11 14 10 11 13 11 10 13 8 14
57 54 50 46 40 35 38 34 29 22 25 18 12 16 19 18 20 20 9 11 12 16 17 13 20 28 18 19 28 31 31 18 14 13 4 11 14 14 15 13 8 10 15 15 21
56 49 38 34 37 37 35 31 28 26 29 31 27 23 27 28 30 33 26 23 20 23 24 22 25 31 29 26 21 24 30 30 13 12 17 7 14 30 20 13 18 22 21 21 22
53 41 30 30 34 36 28 29 31 30 22 27 28 26 22 21 19 24 28 26 23 24 16 15 12 18 25 22 19 22 23 24 18 17 10 7 9 10 23 35 31 28 20 19 17
41 33 29 27 33 31 31 32 34 32 25 25 31 32 33 29 21 22 24 21 25 25 19 20 23 23 24 26 23 29 36 34 37 25 31 30 29 37 34 29 26 21 20 21 29
43 31 33 29 32 29 31 25 20 24 22 21 27 28 29 34 34 37 38 39 38 34 33 33 31 29 33 33 32 31 45 31 28 32 32 36 28 30 33 25 26 20 16 20 19
38 36 35 29 23 27 22 21 22 23 24 25 22 25 29 31 28 32 32 32 36 33 33 34 30 26 33 35 35 38 45 38 36 38 40 35 39 35 34 29 28 25 25 21 24
36 32 21 24 20 21 25 22 23 21 24 27 26 30 32 32 31 33 36 37 37 36 33 26 26 22 22 23 18 27 38 31 33 34 27 32 31 29 22 22 26 26 21 24 30
Wind_Direction
287 290 293 294 296 298 301 305 307 312 319 326 331 333 331 337 342 348 7 4 332 277 259 227 240 264 298 198 189 217 264 277 287 305 314 293 289 328 282 281 291 280 281 273 274
289 292 295 295 296 297 300 303 308 311 315 321 330 333 335 335 336 343 12 356 338 317 278 246 234 251 248 212 203 237 262 268 307 302 298 299 287 286 305 274 284 294 306 287 287
289 292 294 295 297 298 299 301 305 309 310 313 321 329 335 339 333 309 331 337 337 332 313 286 274 265 247 215 223 263 289 272 284 270 279 296 291 274 275 281 269 280 272 285 277
292 295 295 293 298 300 302 302 306 306 304 306 312 318 331 342 331 314 319 322 305 332 319 308 288 268 269 245 246 258 246 263 261 261 268 278 287 282 267 261 264 268 272 292 279
292 292 293 297 300 301 299 299 303 305 307 309 310 310 315 330 325 323 319 304 285 294 307 289 282 294 283 261 248 246 251 252 258 264 262 269 278 288 277 264 271 275 271 279 282
286 285 289 293 294 297 299 300 304 308 307 310 314 313 315 323 320 314 310 300 284 270 267 272 274 280 283 281 276 272 261 260 266 264 264 262 270 271 294 286 283 283 278 271 278
283 281 284 286 289 292 293 296 304 308 309 308 310 308 307 313 308 302 293 294 287 276 253 258 267 277 276 278 266 271 283 283 293 289 277 271 252 246 269 290 270 283 273 271 278
278 281 285 286 286 287 287 292 299 302 310 309 308 304 302 305 299 289 287 277 269 271 270 253 264 267 262 269 275 282 286 297 299 318 283 250 254 257 252 267 282 277 263 266 272
273 278 284 287 290 288 287 288 294 295 303 305 300 299 304 305 293 290 293 282 279 274 273 278 284 272 268 275 283 284 278 309 315 337 337 274 266 257 257 284 291 287 265 273 280
276 278 285 286 290 290 292 291 294 298 303 301 297 294 290 286 287 285 278 279 265 267 273 278 280 272 268 262 258 286 302 306 296 287 278 295 278 221 230 263 273 266 276 282 284
274 278 284 281 285 285 293 294 297 301 300 294 291 291 284 273 266 262 268 270 275 279 281 280 263 259 273 275 274 286 292 284 286 291 297 287 284 271 263 265 260 255 258 268 276
274 274 279 282 282 289 295 300 306 304 304 299 296 284 284 273 269 261 263 269 274 276 272 262 265 281 281 270 264 285 272 282 288 286 291 294 286 284 280 276 277 275 264 261 263
277 276 279 275 286 286 295 297 303 306 307 320 302 280 287 274 284 267 259 263 273 275 274 260 274 275 267 273 253 258 272 294 297 294 289 295 292 290 285 285 284 278 270 259 263
274 274 270 269 281 282 289 296 300 304 307 319 234 284 329 158 221 28 300 292 283 287 254 276 278 270 255 263 250 254 264 279 285 291 303 294 296 287 296 300 302 290 276 267 263
272 270 272 272 275 276 281 286 289 305 325 261 251 271 214 238 268 293 268 269 277 264 246 241 241 263 257 255 264 272 267 266 273 279 286 281 260 274 276 300 308 291 285 283 279
264 266 265 269 266 273 275 271 276 268 251 268 237 242 252 260 278 268 260 268 279 269 246 262 265 272 260 259 269 279 274 275 275 276 274 259 229 290 307 284 297 305 296 290 285
258 253 259 259 256 260 252 253 240 213 222 235 252 245 252 255 254 253 278 273 278 295 281 274 265 262 272 286 276 267 261 278 285 220 240 136 251 258 275 276 296 294 278 272 264
259 251 244 250 247 243 235 229 216 243 224 198 235 220 238 257 259 259 256 255 266 270 281 290 293 288 252 260 272 247 241 217 248 217 280 288 274 276 276 309 305 286 249 230 223
237 237 245 240 230 227 220 211 225 225 245 254 246 255 260 252 253 259 252 263 272 263 267 289 271 244 244 249 273 274 260 275 262 278 273 272 270 246 277 271 280 306 277 251 227
228 237 228 225 219 217 213 221 221 214 232 238 257 246 230 227 241 258 229 227 229 255 250 276 279 275 264 264 266 259 274 287 271 270 267 265 283 266 306 311 308 307 289 291 275
224 229 225 224 221 208 214 219 222 212 234 248 251 270 268 278 268 274 259 247 262 251 252 272 270 270 262 252 268 283 283 281 284 270 266 270 267 281 302 307 303 321 325 300 290
227 219 228 225 213 210 216 220 237 239 248 248 250 261 269 268 272 275 274 268 257 277 283 270 287 282 278 271 268 267 271 278 270 283 276 290 260 277 275 261 302 305 301 297 297
222 217 187 204 211 213 214 226 237 240 235 247 255 256 254 260 271 271 271 270 269 276 278 288 271 296 287 281 273 257 258 251 284 312 275 285 272 269 285 289 298 295 291 287 289
214 193 192 202 220 222 221 228 232 238 244 249 252 253 258 259 253 263 267 268 266 264 272 287 284 258 258 271 282 278 276 267 284 283 281 271 285 291 298 303 300 289 284 282 288
206 197 204 210 218 225 230 233 232 237 237 237 244 246 257 269 267 264 263 268 269 270 268 281 275 273 273 276 279 278 279 284 279 281 276 278 281 287 293 295 295 291 287 285 275
212 211 207 213 196 221 215 226 230 228 239 243 246 250 242 246 254 268 269 273 278 280 274 271 270 269 268 267 270 275 276 280 279 280 271 276 282 289 287 283 276 280 283 285 291
211 209 202 213 215 214 217 232 241 246 252 255 253 255 259 258 261 268 272 272 272 275 275 264 266 266 260 276 265 283 277 290 289 280 284 283 289 292 278 277 276 271 287 296 299
Height
3167 3167 3167 3166 3165 3164 3161 3160 3158 3157 3155 3154 3152 3150 3148 3147 3145 3142 3140 3140 3138 3137 3138 3138 3138 3138 3138 3139 3139 3139 3139 3136 3136 3137 3137 3137 3136 3134 3133 3130 3129 3130 3128 3128 3129
3163 3164 3164 3164 3163 3161 3159 3158 3156 3154 3153 3151 3150 3148 3146 3145 3143 3141 3140 3139 3137 3136 3136 3135 3136 3136 3137 3138 3138 3137 3135 3133 3135 3135 3134 3134 3134 3131 3131 3129 3127 3126 3125 3127 3128
3160 3160 3160 3161 3160 3158 3156 3154 3153 3151 3150 3148 3147 3146 3145 3142 3141 3140 3139 3138 3137 3135 3134 3134 3133 3133 3134 3134 3134 3133 3132 3131 3132 3132 3130 3129 3129 3129 3127 3126 3125 3123 3121 3123 3124
3157 3157 3157 3157 3156 3155 3153 3152 3150 3149 3146 3146 3145 3143 3143 3141 3141 3137 3137 3136 3134 3133 3133 3132 3131 3130 3131 3132 3131 3130 3130 3128 3127 3128 3127 3125 3124 3123 3123 3121 3120 3119 3118 3118 3120
3154 3154 3155 3155 3153 3153 3152 3150 3148 3146 3145 3143 3141 3140 3140 3140 3136 3135 3133 3132 3131 3130 3130 3129 3128 3128 3127 3127 3126 3126 3125 3125 3124 3124 3123 3122 3121 3119 3118 3115 3116 3115 3115 3114 3114
3151 3151 3152 3152 3151 3149 3150 3148 3146 3144 3140 3139 3137 3136 3135 3135 3133 3130 3129 3128 3127 3126 3127 3125 3124 3125 3124 3124 3124 3123 3121 3120 3119 3117 3118 3117 3117 3117 3116 3113 3112 3111 3112 3113 3112
3149 3148 3149 3149 3147 3146 3146 3145 3144 3141 3138 3135 3134 3130 3131 3131 3130 3129 3125 3124 3123 3122 3122 3121 3121 3122 3121 3121 3120 3118 3116 3115 3113 3113 3112 3113 3112 3112 3114 3109 3108 3107 3107 3109 3110
3144 3145 3146 3145 3143 3142 3142 3142 3140 3138 3136 3132 3131 3129 3125 3126 3125 3123 3121 3120 3119 3119 3118 3117 3116 3118 3117 3118 3116 3115 3115 3112 3109 3107 3106 3106 3105 3108 3111 3108 3103 3103 3103 3104 3103
3139 3140 3140 3140 3139 3138 3136 3137 3136 3134 3131 3128 3126 3125 3122 3120 3120 3118 3118 3118 3116 3116 3116 3115 3116 3115 3115 3114 3114 3112 3110 3109 3108 3105 3102 3102 3102 3105 3109 3106 3104 3102 3102 3100 3098
3135 3136 3136 3136 3134 3132 3132 3131 3131 3129 3127 3123 3119 3122 3120 3118 3115 3114 3112 3112 3113 3113 3112 3113 3113 3110 3110 3112 3110 3109 3109 3108 3107 3105 3102 3101 3101 3102 3102 3102 3101 3100 3098 3094 3091
3130 3131 3131 3131 3129 3127 3127 3127 3127 3123 3122 3118 3116 3113 3113 3110 3109 3107 3108 3107 3109 3108 3108 3109 3108 3104 3107 3108 3108 3107 3105 3104 3103 3103 3097 3095 3093 3095 3097 3097 3098 3098 3097 3091 3086
3124 3125 3125 3126 3124 3122 3122 3121 3120 3115 3111 3114 3109 3102 3103 3101 3100 3105 3103 3104 3103 3103 3103 3103 3099 3104 3103 3102 3103 3103 3103 3101 3098 3098 3094 3090 3085 3088 3091 3089 3088 3088 3088 3088 3081
3117 3118 3119 3120 3120 3118 3119 3118 3115 3111 3105 3103 3100 3097 3098 3098 3097 3099 3099 3099 3099 3098 3099 3099 3097 3098 3099 3098 3098 3097 3097 3096 3095 3092 3091 3087 3078 3079 3083 3082 3078 3075 3074 3075 3072
3111 3112 3113 3114 3116 3114 3116 3115 3114 3111 3104 3100 3097 3096 3098 3096 3097 3097 3097 3099 3097 3096 3096 3096 3095 3094 3093 3093 3094 3093 3094 3091 3089 3089 3086 3086 3072 3073 3072 3071 3069 3065 3063 3064 3063
3104 3105 3106 3107 3107 3110 3114 3112 3111 3111 3109 3099 3097 3095 3095 3098 3098 3097 3096 3095 3095 3095 3094 3093 3092 3092 3091 3091 3091 3090 3089 3087 3085 3083 3080 3079 3081 3063 3064 3060 3059 3056 3054 3054 3054
3096 3097 3098 3099 3101 3106 3108 3108 3109 3113 3102 3096 3094 3092 3094 3094 3095 3094 3094 3093 3093 3090 3089 3087 3088 3088 3087 3086 3085 3086 3086 3084 3081 3077 3069 3071 3070 3054 3059 3055 3053 3052 3050 3049 3047
3087 3088 3089 3091 3096 3099 3102 3104 3108 3102 3096 3092 3092 3090 3091 3091 3092 3091 3092 3091 3092 3089 3086 3083 3082 3083 3083 3080 3081 3081 3081 3080 3078 3073 3064 3066 3065 3059 3054 3052 3048 3046 3045 3044 3043
3074 3079 3079 3082 3088 3091 3094 3098 3095 3091 3091 3088 3086 3086 3087 3088 3089 3088 3090 3089 3090 3089 3085 3080 3075 3078 3078 3076 3075 3076 3077 3078 3075 3071 3063 3064 3061 3059 3055 3050 3046 3044 3042 3041 3041
3062 3066 3069 3072 3078 3079 3085 3084 3083 3085 3086 3082 3083 3084 3083 3085 3084 3083 3084 3086 3085 3086 3084 3080 3074 3075 3076 3074 3074 3074 3074 3075 3071 3067 3065 3057 3058 3056 3053 3050 3047 3045 3044 3042 3041
3050 3054 3058 3059 3063 3067 3073 3072 3077 3080 3076 3079 3080 3081 3080 3080 3081 3077 3078 3080 3081 3078 3076 3075 3068 3068 3070 3070 3073 3071 3071 3070 3068 3064 3059 3053 3051 3049 3048 3047 3046 3046 3042 3041 3041
3038 3040 3042 3047 3052 3057 3058 3063 3069 3075 3073 3076 3075 3075 3076 3076 3077 3078 3074 3075 3074 3073 3073 3071 3069 3063 3062 3063 3063 3065 3064 3064 3063 3061 3055 3054 3047 3045 3046 3045 3044 3042 3042 3041 3041
3027 3031 3034 3040 3048 3047 3049 3056 3063 3069 3070 3072 3072 3071 3072 3071 3070 3073 3071 3070 3070 3069 3069 3069 3063 3056 3054 3056 3058 3060 3058 3056 3056 3055 3051 3048 3044 3043 3042 3043 3041 3039 3040 3035 3035
3018 3025 3031 3032 3035 3038 3047 3052 3055 3058 3064 3065 3066 3067 3067 3068 3068 3064 3062 3064 3065 3065 3064 3064 3060 3054 3046 3051 3050 3050 3051 3050 3051 3049 3048 3048 3038 3041 3038 3037 3034 3031 3033 3032 3030
3010 3017 3024 3026 3028 3033 3038 3041 3045 3050 3053 3058 3058 3061 3061 3059 3061 3055 3056 3056 3060 3061 3060 3060 3055 3054 3050 3047 3047 3045 3044 3043 3043 3042 3040 3035 3032 3030 3032 3030 3027 3021 3025 3023 3024
2998 3005 3010 3014 3020 3026 3031 3036 3039 3044 3049 3051 3050 3051 3053 3050 3050 3050 3051 3050 3050 3052 3054 3053 3048 3048 3043 3041 3039 3036 3028 3033 3034 3032 3032 3027 3026 3026 3024 3022 3019 3017 3016 3015 3015
2993 2998 3003 3010 3015 3021 3025 3029 3035 3040 3043 3044 3043 3044 3045 3042 3042 3041 3043 3042 3041 3041 3045 3045 3037 3039 3036 3036 3034 3028 3023 3025 3022 3020 3019 3019 3015 3018 3015 3015 3014 3011 3010 3008 3008
2983 2991 2997 3006 3012 3016 3019 3023 3030 3034 3037 3037 3038 3037 3036 3036 3035 3037 3036 3035 3034 3034 3034 3037 3034 3031 3025 3029 3025 3020 3017 3018 3014 3011 3010 3009 3009 3009 3008 3008 3006 3004 3002 3000 2998